Aomen Kexue 1B

operational
NORAD ID: 56732 Int'l Des: 2023-069 Owner: CASC Country: CN
LEOCIRCULAR

About Aomen Kexue 1B

Description loading...

Live Position

Loading 3D Globe...

Upcoming Passes

Altitude History

Altitude vs Time

uPlot chart will show altitude changes over time

Two-Line Element Set

1 56732U 23069B 26046.93392179 .00007784 00000-0 46340-3 0 9990
2 56732 41.0095 37.2792 0001843 179.8932 180.1883 15.11347623151895
Epoch: Feb 15, 2026 • Age: 10 hours

Current Status

Altitude 532.5 km
Velocity 7.60 km/s
Sub-Earth Point 22.95°N, 156.28°E
Launch Date May 21, 2023
Age 2.7 years
Type other

Technical Details

Classification Payload
Mass 200.00 kg
Dry Mass 200.00 kg
Total Mass 200.00 kg
Length 1.50 m
Diameter 1.00 m
Span 4.00 m
Shape Box + 2 Pan
Manufacturer DFHZ
Bus Type AK1B
Phase Status In Orbit
Owner/State CASC/CN

Large Constellations

Loading constellations...